Flag for Germany Weather past 2 weeks in Idar-Oberstein, Rhineland-Palatinate, Germany

Now
45 °F

Clear.


Feels Like: 41 °F
Forecast: 38 / 62 °F
Wind: 6 mph from Northeast

Location: Hahn

Current Time: Apr 21, 2015 at 3:41:17 AM

Latest Report: Apr 21, 2015 at 3:20 AM


Visibility: 10 mi

Pressure: 30.36 "Hg

Humidity: 66%

Dew point: 34 °F

Location of Idar-ObersteinLocation

Historic Weather in Idar-Oberstein — Graph

°F

Idar-Oberstein temperature yesterday

Maximum temperature yesterday: 63 °F (at 5:20 PM)
Minimum temperature yesterday: 41 °F (at 6:20 AM)
Average temperature yesterday: 52 °F

Past Weeks' High & Low Weather Summary

 TemperatureHumidityPressure
High72 °F (Apr 15, 3:20 PM)100% (Apr 11, 10:50 PM)30.60 "Hg (Apr 11, 10:50 PM)
Low32 °F (Apr 6, 2:50 AM)23% (Apr 10, 3:50 PM)29.89 "Hg (Apr 16, 5:20 PM)
Average50 °F60%30.25 "Hg
* Reported Apr 6 2:20 AM — Apr 21 2:20 AM, Idar-Oberstein, Weather by CustomWeather, © 2015

Note: Actual official high and low records may vary slightly from our data, if they occured in-between our weather recording intervals... More about our weather records

Advertising

Idar-Oberstein weather history for previous 24 hours

 ConditionsComfort  
Time TempWeatherWind HumidityBarometerVisibility
2:20 AM
Tue, Apr 21
43 °FClear.6 mph71%30.36 "Hg10 mi
1:50 AM46 °FClear.9 mph62%30.36 "Hg10 mi
1:20 AM48 °FClear.9 mph58%30.36 "Hg10 mi
12:50 AM48 °FClear.8 mph58%30.36 "Hg10 mi
12:20 AM48 °FClear.10 mph58%30.33 "Hg10 mi
11:50 PM
Mon, Apr 20
48 °FClear.12 mph54%30.33 "Hg10 mi
11:20 PM52 °FClear.10 mph50%30.33 "Hg10 mi
10:50 PM52 °FClear.10 mph47%30.33 "Hg10 mi
10:20 PM54 °FClear.9 mph47%30.33 "Hg10 mi
9:50 PM55 °FClear.10 mph44%30.33 "Hg10 mi
9:20 PM55 °FSunny.9 mph41%30.33 "Hg10 mi
8:50 PM57 °FSunny.9 mph36%30.30 "Hg10 mi
8:20 PM59 °FSunny.9 mph36%30.30 "Hg10 mi
7:50 PM59 °FPassing clouds.7 mph36%30.30 "HgN/A
7:20 PM61 °FSunny.8 mph34%30.27 "Hg10 mi
6:50 PM63 °FPassing clouds.7 mph32%30.27 "HgN/A
6:20 PM61 °FPassing clouds.10 mph34%30.27 "HgN/A
5:50 PM63 °FPassing clouds.9 mph34%30.27 "HgN/A
5:20 PM63 °FPassing clouds.13 mph34%30.27 "HgN/A
4:50 PM61 °FPassing clouds.10 mph36%30.30 "HgN/A
4:20 PM61 °FPassing clouds.12 mph39%30.30 "HgN/A
3:50 PM61 °FPassing clouds.14 mph34%30.30 "HgN/A
3:20 PM61 °FPassing clouds.9 mph34%30.30 "HgN/A
2:50 PM61 °FSunny.9 mph34%30.30 "Hg10 mi
2:20 PM59 °FPassing clouds.9 mph36%30.30 "HgN/A
1:50 PM59 °FSunny.14 mph36%30.30 "Hg10 mi
1:20 PM59 °FPassing clouds.13 mph39%30.30 "HgN/A
12:50 PM59 °FPassing clouds.10 mph39%30.30 "HgN/A
12:20 PM57 °FPassing clouds.8 mph39%30.30 "HgN/A
11:50 AM55 °FPassing clouds.6 mph44%30.30 "HgN/A
11:20 AM55 °FPassing clouds.6 mph44%30.30 "HgN/A
10:50 AM54 °FPassing clouds.7 mph44%30.30 "HgN/A
10:20 AM54 °FPassing clouds.9 mph44%30.30 "HgN/A
9:50 AM52 °FSunny.8 mph50%30.27 "Hg10 mi
9:20 AM50 °FPassing clouds.6 mph54%30.27 "HgN/A
8:50 AM48 °FPassing clouds.5 mph58%30.27 "HgN/A
8:20 AM46 °FSunny.5 mph57%30.27 "Hg10 mi
7:50 AM43 °FSunny.2 mph61%30.24 "Hg10 mi
7:20 AM45 °FClear.5 mph57%30.24 "Hg10 mi
6:50 AM43 °FClear.5 mph61%30.24 "Hg10 mi
6:20 AM41 °FClear.5 mph66%30.24 "Hg10 mi
5:50 AM43 °FClear.6 mph61%30.21 "Hg10 mi
5:20 AM43 °FClear.5 mph61%30.21 "Hg10 mi
4:50 AM43 °FClear.5 mph61%30.21 "Hg10 mi
4:20 AM43 °FClear.6 mph61%30.21 "Hg10 mi
3:50 AM43 °FClear.6 mph61%30.21 "Hg10 mi
3:20 AM43 °FClear.6 mph57%30.21 "Hg10 mi
Weather by CustomWeather, © 2015

See weather overviewHow to use our weather pages